Regional Weather Roundup
Issued by NWS Sioux Falls, SD

Home | Current Version | Previous Version | Text Only | Print | Product List | Glossary On
Versions: 1 2 3 4 5 6 7 8 9 10 11 12 13 14 15 16 17 18 19 20 21 22 23 24 25 26 27 28 29 30 31 32 33 34 35 36 37 38 39 40 41 42 43 44 45 46 47 48 49 50
574
ASUS43 KFSD 191710
RWRFSD

WEATHER ROUNDUP FOR SE SOUTH DAKOTA/SW MINNESOTA/NW IOWA
NATIONAL WEATHER SERVICE SIOUX FALLS SD
1200 PM CDT THU APR 19 2018

NOTE: "FAIR" INDICATES FEW OR NO CLOUDS BELOW 12,000 FEET WITH NO
SIGNIFICANT WEATHER AND OR OBSTRUCTIONS TO VISIBILITY.


SDZ038>040-050-052>070-191800-
SOUTHEAST SOUTH DAKOTA

CITY           SKY/WX    TMP DP  RH WIND       PRES   REMARKS
BROOKINGS      SUNNY     44  26  49 SW6       30.48R
CHAMBERLAIN    SUNNY     44  35  70 S7        30.47F
HURON          SUNNY     40  32  73 S7        30.49R
MADISON        FAIR      39  19  45 S3        30.49R
MITCHELL       SUNNY     40  32  73 W5        30.50R
SIOUX FALLS    MOSUNNY   41  24  51 E5        30.50R
WINNER         FAIR      42  29  59 S7        30.45S
YANKTON        SUNNY     43  28  55 VRB3      30.50R
$$

MNZ071-072-080-081-089-090-097-098-191800-
SOUTHWEST MINNESOTA

CITY           SKY/WX    TMP DP  RH WIND       PRES   REMARKS
FAIRMONT       SUNNY     35  22  58 N5        30.52R
JACKSON        SUNNY     34  23  64 CALM      30.51R
LUVERNE        SUNNY     36  23  60 SE3       30.50R
MARSHALL       SUNNY     41  20  43 S10       30.49S
MONTEVIDEO     SUNNY     45  19  36 SW9       30.49S
PIPESTONE      SUNNY    N/A N/A N/A S5        30.47R
REDWOOD FALLS  SUNNY     41  24  51 S6        30.50R
TRACY          SUNNY     41  23  48 S6        30.49R
WINDOM           N/A     39  18  41 CALM      30.50R
WORTHINGTON    SUNNY     36  18  48 NE3       30.50R
$$

IAZ001>003-012>014-020>022-031-032-NEZ013-014-SDZ071-191800-
NORTHWEST IOWA

CITY           SKY/WX    TMP DP  RH WIND       PRES   REMARKS
CHEROKEE       SUNNY     38  25  59 E6        30.51R
DENISON        SUNNY     45  32  61 VRB6G12   30.49S
ESTHERVILLE    SUNNY     34  24  67 NE6       30.50R WCI  29
LE MARS        SUNNY     39  25  56 E5        30.51R
ORANGE CITY    SUNNY     37  25  60 CALM      30.50R
SHELDON        SUNNY     36  25  64 E6        30.48S
SIOUX CITY     SUNNY     45  28  51 E7        30.50R
SPENCER        SUNNY     37  23  56 E7        30.50R
STORM LAKE     SUNNY     34  23  64 E10       30.49R WCI  26
$$

ABBREVIATIONS USED IN REMARKS
   TC - TEMPERATURE IN CELSIUS
  WCI - WIND CHILL INDEX
   HX - HEAT INDEX
  VSB - VISIBILITY





USA.gov is the U.S. government's official web portal to all federal, state and local government web resources and services.